Weather History for KOJC - February, 2012

Change the Weather History Date:

Friday, February 3, 2012

  Actual Average Record
Temperature  
Mean Temperature 46 °F 32 °F  
Max Temperature 50 °F 41 °F 69 °F (1962)
Min Temperature 41 °F 22 °F -9 °F (2011)
Degree Days  
Heating Degree Days 19 33  
Month to date heating degree days 49 100  
Since 1 July heating degree days 2671 3148  
Cooling Degree Days 0 0  
Month to date cooling degree days 0 0  
Year to date cooling degree days 0 0  
Moisture  
Dew Point 37 °F    
Average Humidity 68    
Maximum Humidity 100    
Minimum Humidity 36    
Precipitation  
Precipitation 0.37 in 0.05 in 0.37 in (2012)
Month to date precipitation 0.37 0.15  
Year to date precipitation 0.38 1.27  
Sea Level Pressure  
Sea Level Pressure 30.06 in    
Wind  
Wind Speed 14 mph (ENE)    
Max Wind Speed 23 mph    
Max Gust Speed 30 mph    
Visibility 7 miles    
Events Rain , Thunderstorm    
T = Trace of Precipitation, MM = Missing Value Source: NWS Daily Summary

Daily Weather History Graph

Daily Weather History Graph

Search for Another Location

Airport or City:

Trip Planner

Search our weather history database for the weather conditions in past years. The results will help you decide how hot, cold, wet, or windy it might be!

Date:

Astronomy

Feb. 03, 2012 Rise Set
Actual Time 7:23 AM CST 5:42 PM CST
Civil Twilight 6:55 AM CST 6:10 PM CST
Nautical Twilight 6:23 AM CST 6:42 PM CST
Astronomical Twilight 5:52 AM CST 7:13 PM CST
Moon 1:45 PM CST (2/3) 3:58 AM CST (2/3)
Length of Visible Light 11h 14m
Length of Day
10h 18m
Waxing Gibbous, 82% of the Moon is Illuminated
Feb 3
Waxing Gibbous
Feb 7
Full
Feb 14
Last Quarter
Feb 21
New
Feb 29
First Quarter

Hourly Weather History & Observations

Time (CST) Temp. Windchill Dew Point Humidity Pressure Visibility Wind Dir Wind Speed Gust Speed Precip Events Conditions
12:53 AM 50.0 °F - 25.0 °F 38% 30.14 in 10.0 mi ESE 11.5 mph 20.7 mph N/A   Partly Cloudy
1:53 AM 50.0 °F - 26.1 °F 39% 30.12 in 10.0 mi ESE 15.0 mph 20.7 mph N/A   Mostly Cloudy
2:53 AM 48.0 °F - 26.1 °F 42% 30.09 in 10.0 mi ESE 16.1 mph - N/A   Clear
3:53 AM 46.9 °F - 27.0 °F 46% 30.08 in 10.0 mi ESE 16.1 mph - N/A   Partly Cloudy
4:53 AM 48.0 °F - 28.9 °F 48% 30.03 in 10.0 mi ESE 20.7 mph 27.6 mph N/A   Overcast
5:53 AM 48.9 °F - 30.0 °F 48% 30.01 in 10.0 mi ESE 18.4 mph 27.6 mph N/A   Mostly Cloudy
6:04 AM 48.2 °F - 30.2 °F 50% 30.02 in 10.0 mi ESE 18.4 mph 28.8 mph N/A Thunderstorm Mostly Cloudy
6:50 AM 42.8 °F 38.6 °F 39.2 °F 87% 30.09 in 1.8 mi NNE 6.9 mph 23.0 mph N/A Rain , Thunderstorm Heavy Thunderstorms and Rain
6:53 AM 42.1 °F 37.1 °F 39.0 °F 89% 30.09 in 1.5 mi North 8.1 mph - N/A Rain , Thunderstorm Heavy Thunderstorms and Rain
6:58 AM 42.8 °F 36.6 °F 39.2 °F 87% 30.10 in 1.8 mi NW 11.5 mph - N/A Rain , Thunderstorm Heavy Thunderstorms and Rain
7:04 AM 42.8 °F 38.6 °F 39.2 °F 87% 30.13 in 3.0 mi West 6.9 mph - N/A Rain , Thunderstorm Thunderstorms and Rain
7:15 AM 42.8 °F 38.0 °F 39.2 °F 87% 30.14 in 2.0 mi NNW 8.1 mph - N/A Rain , Thunderstorm Heavy Thunderstorms and Rain
7:42 AM 42.8 °F 37.5 °F 41.0 °F 93% 30.17 in 4.0 mi NW 9.2 mph - N/A Rain Light Rain
7:53 AM 42.1 °F 36.6 °F 41.0 °F 96% 30.18 in 4.0 mi NNW 9.2 mph - N/A Rain Rain
8:53 AM 42.1 °F 34.5 °F 42.1 °F 100% 30.12 in 4.0 mi ENE 15.0 mph - N/A Rain Light Rain
9:53 AM 43.0 °F 35.7 °F 41.0 °F 93% 30.09 in 4.0 mi East 15.0 mph - N/A Rain Light Rain
10:26 AM 42.8 °F 35.1 °F 41.0 °F 93% 30.07 in 10.0 mi East 16.1 mph 23.0 mph N/A   Overcast
10:53 AM 44.1 °F 36.5 °F 42.1 °F 93% 30.08 in 10.0 mi East 17.3 mph 23.0 mph N/A   Overcast
11:53 AM 43.0 °F 36.8 °F 41.0 °F 93% 30.11 in 10.0 mi ENE 11.5 mph - 0.00 in Rain Light Rain
12:53 PM 42.1 °F 35.7 °F 39.9 °F 92% 30.09 in 4.0 mi ENE 11.5 mph 18.4 mph 0.04 in Rain Light Rain
1:53 PM 42.1 °F 35.2 °F 39.0 °F 89% 30.10 in 10.0 mi East 12.7 mph 20.7 mph 0.02 in   Overcast
2:53 PM 41.0 °F 34.7 °F 39.9 °F 96% 30.10 in 5.0 mi ENE 10.4 mph - 0.05 in Rain Light Rain
3:18 PM 41.0 °F 33.9 °F 39.2 °F 93% 30.07 in 2.5 mi ENE 12.7 mph - 0.05 in Rain Rain
3:27 PM 41.0 °F 33.9 °F 41.0 °F 100% 30.07 in 4.0 mi ENE 12.7 mph - 0.06 in Rain Light Rain
3:53 PM 41.0 °F 35.2 °F 41.0 °F 100% 30.10 in 3.0 mi East 9.2 mph - 0.13 in Rain Rain
4:53 PM 41.0 °F 31.6 °F 41.0 °F 100% 29.97 in 7.0 mi East 20.7 mph 26.5 mph 0.07 in Rain Light Rain
5:53 PM 42.1 °F 34.2 °F 39.9 °F 92% 30.00 in 10.0 mi East 16.1 mph 23.0 mph 0.00 in   Overcast
6:53 PM 42.1 °F 33.3 °F 39.9 °F 92% 30.00 in 10.0 mi East 19.6 mph 29.9 mph N/A   Overcast
7:53 PM 42.1 °F 35.2 °F 39.9 °F 92% 29.99 in 9.0 mi East 12.7 mph 25.3 mph N/A   Overcast
8:53 PM 42.1 °F 35.7 °F 41.0 °F 96% 30.01 in 8.0 mi ENE 11.5 mph - N/A   Overcast
9:53 PM 43.0 °F 37.2 °F 41.0 °F 93% 29.99 in 7.0 mi East 10.4 mph - N/A   Overcast
10:13 PM 42.8 °F 37.0 °F 41.0 °F 93% 29.97 in 7.0 mi ENE 10.4 mph - N/A   Overcast
10:53 PM 43.0 °F 36.0 °F 41.0 °F 93% 29.98 in 5.0 mi ENE 13.8 mph - N/A   Overcast
11:53 PM 43.0 °F 36.8 °F 42.1 °F 97% 29.97 in 5.0 mi ENE 11.5 mph - 0.00 in   Overcast